Location: NJAA Observatory
(40.6819°N, 74.8979°W)
Time: 19:05:17
(UTC-04:00)

Courier 1B - All Passes

Search period start: 04 May 2016 00:00
Search period end: 14 May 2016 00:00
Orbit: 963 x 1209 km, 28.3° (Epoch: 04 May)

Date Brightness Start Highest point End Pass type
(mag) Time Alt. Az. Time Alt. Az. Time Alt. Az.
04 May - 00:23:53 10° SSW 00:28:46 18° SSE 00:33:34 10° ESE night (unlit)
04 May - 02:15:39 10° SW 02:22:07 29° S 02:28:20 10° ESE visible
04 May - 04:09:11 10° WSW 04:15:33 30° S 04:21:38 10° SE visible
04 May - 06:03:59 10° WSW 06:08:45 19° SSW 06:13:21 10° SSE daylight
04 May - 23:31:18 10° S 23:35:08 14° SSE 23:38:57 10° SE night (unlit)
05 May - 01:22:06 10° SW 01:28:25 27° SSE 01:34:33 10° ESE visible
05 May - 03:15:17 10° WSW 03:21:53 32° S 03:28:12 10° ESE visible
05 May - 05:09:40 10° WSW 05:15:12 23° SSW 05:20:31 10° SSE visible
05 May - 22:39:53 10° SSE 22:41:32 11° SSE 22:43:10 10° SE night (unlit)
06 May - 00:28:42 10° SW 00:34:43 24° SSE 00:40:38 10° ESE night (unlit)
06 May - 02:21:28 10° WSW 02:28:10 32° S 02:34:39 10° ESE visible
06 May - 04:15:31 10° WSW 04:21:36 26° SSW 04:27:25 10° SE visible
06 May - 06:11:47 10° SW 06:14:39 13° SSW 06:17:28 10° S daylight
06 May - 23:35:31 10° SSW 23:41:02 21° SSE 23:46:32 10° ESE night (unlit)
07 May - 01:27:45 10° SW 01:34:27 31° S 01:40:59 10° ESE visible
07 May - 03:21:29 10° WSW 03:27:56 29° S 03:34:08 10° SE visible
07 May - 05:16:43 10° WSW 05:21:07 17° SSW 05:25:25 10° SSE visible
07 May - 22:42:38 10° SSW 22:47:23 17° SSE 22:52:09 10° ESE visible
08 May - 00:34:09 10° SW 00:40:43 30° S 00:47:12 10° ESE night (unlit)
08 May - 02:27:33 10° WSW 02:34:14 31° S 02:40:44 10° SE visible
08 May - 04:22:12 10° WSW 04:27:34 21° SSW 04:32:45 10° SSE visible
08 May - 21:50:18 10° S 21:53:46 13° SSE 21:57:16 10° SE visible
08 May - 23:40:41 10° SW 23:46:59 27° SSE 23:53:18 10° ESE night (unlit)
09 May - 01:33:42 10° WSW 01:40:30 33° S 01:47:10 10° ESE visible
09 May - 03:27:57 10° WSW 03:33:56 25° SSW 03:39:45 10° SE visible
09 May - 05:25:47 10° SW 05:26:58 10° SSW 05:28:09 10° SSW daylight
09 May - 22:47:25 10° SSW 22:53:18 24° SSE 22:59:14 10° ESE visible
10 May - 00:39:58 10° WSW 00:46:45 33° S 00:53:30 10° ESE night (unlit)
10 May - 02:33:51 10° WSW 02:40:16 28° SSW 02:46:31 10° SE visible
10 May - 04:29:38 10° WSW 04:33:27 14° SSW 04:37:10 10° S visible
10 May - 21:54:23 10° SSW 21:59:38 20° SSE 22:04:59 10° ESE visible
10 May - 23:46:21 10° SW 23:53:00 31° S 23:59:41 10° ESE visible
11 May - 01:39:54 10° WSW 01:46:33 31° S 01:53:06 10° SE night (unlit)
11 May - 03:34:52 10° WSW 03:39:51 18° SSW 03:44:45 10° SSE visible
11 May - 21:01:43 10° S 21:06:01 16° SSE 21:10:24 10° ESE visible
11 May - 22:52:51 10° SW 22:59:16 29° S 23:05:48 10° ESE visible
12 May - 00:46:03 10° WSW 00:52:48 32° S 00:59:32 10° SE night (unlit)
12 May - 02:40:29 10° WSW 02:46:13 22° SSW 02:51:52 10° SSE visible
12 May - 20:09:49 10° S 20:12:28 12° SSE 20:15:09 10° SE daylight
12 May - 21:59:32 10° SW 22:05:34 26° SSE 22:11:47 10° ESE visible
12 May - 23:52:19 10° WSW 23:59:03 33° S 00:05:52 10° ESE visible
13 May - 01:46:21 10° WSW 01:52:33 26° SSW 01:58:42 10° SE night (unlit)
13 May - 03:43:02 10° SW 03:45:42 12° SSW 03:48:22 10° S visible
13 May - 21:06:24 10° SSW 21:11:55 22° SSE 21:17:36 10° ESE visible
13 May - 22:58:41 10° SW 23:05:19 32° S 23:12:04 10° ESE visible
